Regional Weather Roundup
Issued by NWS

Home | Current Version | Previous Version | Text Only | Print | Product List | Glossary On
Versions: 1 2 3 4 5 6 7 8 9 10 11 12 13 14 15 16 17 18 19 20 21 22 23 24 25 26 27 28
000
ASUS42 KTBW 261617
RWRFL
FLORIDA REGIONAL WEATHER ROUNDUP
NATIONAL WEATHER SERVICE TAMPA BAY RUSKIN FL
1200 PM EDT THU MAY 26 2016

NOTE: "FAIR" INDICATES FEW OR NO CLOUDS BELOW 12,000 FEET WITH NO
SIGNIFICANT WEATHER AND/OR OBSTRUCTIONS TO VISIBILITY.

FLZ001>010-012>015-112-114-115-261700-
PANHANDLE FLORIDA

CITY           SKY/WX    TMP DP  RH WIND       PRES   REMARKS
PENSACOLA      CLOUDY    83  71  67 SE12      30.15F
PENSACOLA NAS  PTSUNNY   83  72  69 S13       30.14F
MILTON NAS     PTSUNNY   82  72  71 VRB7      30.15
CRESTVIEW      PTSUNNY   83  67  58 VRB6      30.17F
DUKE FIELD     PTSUNNY   83  67  58 S10       30.16R
VALPARAISO     PTSUNNY   82  67  62 S13       30.16R
MARY ESTHER    PTSUNNY   82  69  63 SE13      30.15
PANAMA CITY    FAIR      82  70  66 SE9       30.16R
TYNDALL AFB    SUNNY     83  69  62 S14       30.16S
APALACHICOLA   PTSUNNY   81  70  69 SE9       30.17F

STATION/POSITION SKY/WX   TEMP    WIND        PRES    WAVE   SWELL
                          AIR SEA DIR/SP/G            HT/PER HT/PER
                          (F)     (DEG/KT/KT) (MB)    (FT/S) (FT/S)
30.1N   87.6W              78 80  120/ 10/ 12 1020.0F   2/ 5   2/ 5
29.2N   88.2W              78 79  110/  6/  8 1020.5R
28.8N   86.0W              80 80  140/ 10/ 14 1021.0R   2/ 4   2/ 5
PANAMA CITY BEAC           77 79  130/ 10/ 12 1021.4F
TOWER C                    76     140/  9/  9 1022.1F
28.5N   84.5W              77 78  120/ 10/ 12 1020.9F   3/ 6   3/ 6

$$
FLZ011-016>038-118-127-128-134-139-239-261700-
NORTH FLORIDA

CITY           SKY/WX    TMP DP  RH WIND       PRES   REMARKS
MARIANNA       SUNNY     84  67  56 S7        30.16S
TALLAHASSEE    PTSUNNY   86  63  45 S8        30.18S
PERRY          SUNNY     83  60  45 SE3       30.19S
LIVE OAK       FAIR      84  63  48 S3        30.21R
CROSS CITY       N/A     85  60  42 E6        30.17F
LAKE CITY      FAIR      81  61  50 SE5       30.18F
GAINESVILLE    MOSUNNY   83  61  47 E12       30.18F
WILLISTON      FAIR      84  63  48 NE7       30.17F
PALATKA        FAIR      82  63  51 E8        30.19S
MAYPORT NAS    MOSUNNY   80  64  58 E9        30.19F
JACKSONVILLE   MOSUNNY   83  62  49 E8        30.18S
JAX NAS        MOSUNNY   85  57  38 E5        30.19S
JAX CECIL      MOSUNNY   81  63  54 E5        30.19F
FERNANDINA BEA FAIR      82  63  51 E7        30.19S
ST AUGUSTINE   SUNNY     80  63  55 E10       30.20S
PALM COAST     MOSUNNY   81  63  54 MISG      30.18F

STATION/POSITION SKY/WX   TEMP    WIND        PRES    WAVE   SWELL
                          AIR SEA DIR/SP/G            HT/PER HT/PER
                          (F)     (DEG/KT/KT) (MB)    (FT/S) (FT/S)
SHELL POINT                80     160/  8/ 11 1021.1
KEATON BEACH               77     210/  8/ 10 1021.9R
CEDAR KEY                  76     160/  4/  5 1022.0F
FERNANDINA                 81 80   90/  5/  8 1022.5F
30.7N   81.3W                 79                N/A     2/ 8
MAYPORT                    77 80   70/  9/ 12 1022.7F
31.4N   80.9W              77 77  120/  2/  4 1023.1F   2/ 8   2/ 8
ST AUGUSTINE               76 79   80/  8/  9 1023.2F

$$
FLZ040-043>046-052-053-057-058-063-144-261700-
INTERIOR CENTRAL FLORIDA

CITY           SKY/WX    TMP DP  RH WIND       PRES   REMARKS
OCALA          MOSUNNY   81  57  44 E5        30.18S
THE VILLAGES     N/A     84  61  45 MISG      30.07S
LEESBURG       SUNNY     84  60  44 E13       30.17S
SANFORD        MOSUNNY   84  57  39 E10       30.16F
ORLANDO EXEC   MOSUNNY   84  62  47 E13       30.15F
ORLANDO INTL   MOSUNNY   83  61  47 N13       30.15F
KISSIMMEE      MOSUNNY   82  63  51 E12       30.16S
WINTER HAVEN   MOSUNNY   84  58  40 NE8       30.16F
LAKELAND       MOSUNNY   81  63  54 E10       30.16S
BARTOW         MOSUNNY   81  57  44 E10       30.16R
OKEECHOBEE     PTSUNNY   81  63  54 NE10G16   30.13S

$$
FLZ041-047-054-059-064-141-147-261700-
EAST CENTRAL FLORIDA

CITY           SKY/WX    TMP DP  RH WIND       PRES   REMARKS
ORMOND BEACH   MOSUNNY   81  64  57 NE12      30.18S
DAYTONA BEACH  MOSUNNY   83  62  49 E10       30.18S
DELAND           N/A     82  59  44 E12G17    30.18S
NEW SMYRNA BEA MOSUNNY   81  63  54 NE12G18   30.16F
JFK SPACE CTR  MOSUNNY   80  61  51 E13       30.15R
TITUSVILLE     PTSUNNY   82  61  47 E12       30.17R
CAPE CANAVERAL SUNNY     83  62  50 NE9       30.15R
PATRICK AFB    MOSUNNY   82  64  53 E12       30.15R
MELBOURNE      PTSUNNY   82  62  50 NE10      30.15R
VERO BEACH     PTSUNNY   83  63  50 E13       30.14S
FT PIERCE      PTSUNNY   80  64  58 NE10      30.13S
STUART         PTSUNNY   82  68  61 NE9       30.14R

STATION/POSITION SKY/WX   TEMP    WIND        PRES    WAVE   SWELL
                          AIR SEA DIR/SP/G            HT/PER HT/PER
                          (F)     (DEG/KT/KT) (MB)    (FT/S) (FT/S)
28.5N   80.2W              77 79   60/ 12/ 16 1021.0R
28.9N   78.5W              76 78   60/ 12/ 14 1020.8F
TRIDENT PIER               81 80   50/ 10/ 14 1021.0R
28.4N   80.5W                 80                N/A     3/ 5
27.5N   80.2W                 80                N/A     3/ 8

$$
FLZ050-056-061-142-242-148-248-149-249-151-251-155-255-
160-260-261700-
WEST CENTRAL FLORIDA

CITY           SKY/WX    TMP DP  RH WIND       PRES   REMARKS
CRYSTAL RIVER  FAIR      84  59  42 NE7       30.17S
INVERNESS      FAIR      82  63  51 E7        30.17S
BROOKSVILLE    SUNNY     83  58  42 E12       30.16F
ZEPHYRHILLS    FAIR      83  55  38 E5        30.16S
CLEARWATER AIR FAIR      81  59  47 E7        30.15R
ST PETE CLEARW SUNNY     82  61  48 E6        30.14F
TAMPA INTL     MOSUNNY   84  57  39 N8        30.15S
TAMPA EXEC     SUNNY     86  57  37 E5        30.15S
PLANT CITY     SUNNY     84  63  48 E7        30.17S
MACDILL AFB    SUNNY     84  60  43 VRB7G18   30.14S
PETER O KNIGHT SUNNY     88  61  40 E9        30.14F
ST PETERSBURG  SUNNY     81  60  48 E10       30.13S
SARASOTA       SUNNY     86  57  37 E12G18    30.11F
VENICE         NOT AVBL

STATION/POSITION SKY/WX   TEMP    WIND        PRES    WAVE   SWELL
                          AIR SEA DIR/SP/G            HT/PER HT/PER
                          (F)     (DEG/KT/KT) (MB)    (FT/S) (FT/S)
27.3N   84.2W                 81                N/A     4/ 6
CLEARWATER BEACH           78 81  100/  7/  9 1020.7F
MIDDLE TAMPA BAY           77     100/ 11/ 13 1021.0F
VENICE                     80 81   40/  8/ 10 1019.6F

$$
FLZ066-069-070-075>078-162-262-165-265-261700-
SOUTHWEST FLORIDA AND KEYS

CITY           SKY/WX    TMP DP  RH WIND       PRES   REMARKS
PUNTA GORDA    SUNNY     84  57  39 E8        30.13F
FT MYERS       SUNNY     84  56  38 MISG      30.10S
SOUTHWEST INTL MOSUNNY   83  54  36 VRB5      30.10F
NAPLES         SUNNY     84  51  31 E6G17     30.09F
MARCO ISLAND   SUNNY     84  55  37 E14       30.10S
MARATHON       PTSUNNY   83  60  45 NE10      30.08S
KEY WEST NAS   MOSUNNY   83  65  54 E12       30.08S
KEY WEST INTL  PTSUNNY   82  67  60 E10       30.09S

STATION/POSITION SKY/WX   TEMP    WIND        PRES    WAVE   SWELL
                          AIR SEA DIR/SP/G            HT/PER HT/PER
                          (F)     (DEG/KT/KT) (MB)    (FT/S) (FT/S)
NAPLES                        83              1019.3F
26.0N   85.6W              81 81  100/ 16/ 17 1019.6R   4/ 6
DRY TORTUGAS               79      90/ 12/ 13 1018.8F
SAND KEY                   79      90/ 11/ 13 1019.1S
LONG KEY                   80 82   40/ 10/ 12 1018.8F
MOLASSES REEF                      60/ 11       N/A

$$
FLZ067-068-071>074-168-172>174-261700-
SOUTHEAST FLORIDA

CITY           SKY/WX    TMP DP  RH WIND       PRES   REMARKS
W PALM BEACH   PTSUNNY   82  61  48 E9        30.12R
FT LAUDER-EXEC MOSUNNY   81  60  48 NE12G21   30.10R
FT LAUDERDALE  MOSUNNY   83  62  49 NE15G21   30.09R
POMPANO BEACH  MOSUNNY   83  58  42 NE9G20    30.10R
PEMBROKE PINES PTSUNNY   85  62  46 E15       30.11R
OPA LOCKA      SUNNY     83  60  45 E9        30.10R
MIAMI          MOSUNNY   83  59  44 E14G20    30.10R
WEST KENDALL   SUNNY     83  59  44 E8        30.09R
HOMESTEAD      SUNNY     82  62  49 NE12      30.09R

STATION/POSITION SKY/WX   TEMP    WIND        PRES    WAVE   SWELL
                          AIR SEA DIR/SP/G            HT/PER HT/PER
                          (F)     (DEG/KT/KT) (MB)    (FT/S) (FT/S)
PORT EVERGLADES            79      50/ 10/ 13 1019.3R
VIRGINIA KEY               79 81   70/ 11/ 14 1018.9F
LAKE WORTH                 79 80   70/ 11/ 14 1019.0F
FOWEY ROCKS                79 82   50/ 10/ 11 1019.5R
SETTLEMENT POINT           78      80/ 16/ C1F1M1C2F2M2C3F3C4F4M3C5F5M4C6F6M5C7F7M6C8!



USA.gov is the U.S. government's official web portal to all federal, state and local government web resources and services.